Terug naar catalogus

HULIANWANG DIGUI-128

ActiefCommunicatieLEO
NORAD 67236·PAYLOAD·🇨🇳 China

Gelanceerd Dec 25, 2025 vanaf Wenchang Space Launch Site

Loading…

Volgende Passages (komende 24 uur)

TLE

VersSource: Space-Track

Epoch: Sep 13, 2026, 21:34 UTC

1 67236U 25311A   26256.89871308 -.00000081  00000-0  93732-4 0  9999
2 67236  50.0077 157.4126 0000279 305.9772  54.1075 13.29326993 35144

Volg HULIANWANG DIGUI-128 in realtime met AllMySat

Download on the App Store